,,,PA_Meas_PMT16A,,PR_Meas_QMR101_102,,RH_Meas_QMH101,,SR_Meas_QMS101,,TA_Meas_QMH101,,GenWind,,GenWind,
date,time,status,PA,status,PR,status,RH,status,SR,status,TA,status,DirAvg,status,SpdAvg,
2008-12-06, 00:00:04,VALID,1005.5,VALID,0,VALID,95.7119,VALID,0,VALID,24.4841,VALID,293,VALID,0.378516,
2008-12-06, 00:01:04,VALID,1005.48,VALID,0,VALID,95.7196,VALID,0,VALID,24.4628,VALID,292,VALID,0.535547,
2008-12-06, 00:02:04,VALID,1005.49,VALID,0,VALID,95.7272,VALID,0,VALID,24.4841,VALID,296,VALID,0.446875,
2008-12-06, 00:03:04,VALID,1005.46,VALID,0,VALID,95.7043,VALID,0,VALID,24.5035,VALID,280,VALID,0.44375,
2008-12-06, 00:04:04,VALID,1005.45,VALID,0,VALID,95.7272,VALID,0,VALID,24.4628,VALID,281,VALID,0.00234375,
2008-12-06, 00:05:04,VALID,1005.44,VALID,0,VALID,95.689,VALID,0,VALID,24.4822,VALID,281,VALID,0.358984,
2008-12-06, 00:06:04,VALID,1005.4,VALID,0,VALID,95.7043,VALID,0,VALID,24.4628,VALID,282,VALID,0.348437,
2008-12-06, 00:07:04,VALID,1005.38,VALID,0,VALID,95.6814,VALID,0,VALID,24.4628,VALID,283,VALID,0.215625,
2008-12-06, 00:08:04,VALID,1005.36,VALID,0,VALID,95.7043,VALID,0,VALID,24.4822,VALID,285,VALID,0.0183594,
2008-12-06, 00:09:04,VALID,1005.35,VALID,0,VALID,95.7119,VALID,0,VALID,24.4841,VALID,285,VALID,0.609375,
2008-12-06, 00:10:04,VALID,1005.31,VALID,0,VALID,95.7119,VALID,0,VALID,24.4822,VALID,306,VALID,0.305469,
2008-12-06, 00:11:04,VALID,1005.3,VALID,0,VALID,95.7119,VALID,0,VALID,24.4628,VALID,305,VALID,0.0878906,
2008-12-06, 00:12:04,VALID,1005.28,VALID,0,VALID,95.6967,VALID,0,VALID,24.4628,VALID,301,VALID,0.0386719,
2008-12-06, 00:13:04,VALID,1005.28,VALID,0,VALID,95.7119,VALID,0,VALID,24.4822,VALID,301,VALID,0,
2008-12-06, 00:14:04,VALID,1005.24,VALID,0,VALID,95.7119,VALID,0,VALID,24.4628,VALID,270,VALID,0.628516,
2008-12-06, 00:15:04,VALID,1005.21,VALID,0,VALID,95.6738,VALID,0,VALID,24.4628,VALID,270,VALID,0.25625,
2008-12-06, 00:16:04,VALID,1005.19,VALID,0,VALID,95.6967,VALID,0,VALID,24.4628,VALID,306,VALID,0.336719,
2008-12-06, 00:17:04,VALID,1005.18,VALID,0,VALID,95.6967,VALID,0,VALID,24.4646,VALID,308,VALID,0.427734,
2008-12-06, 00:18:04,VALID,1005.12,VALID,0,VALID,95.6967,VALID,0,VALID,24.4433,VALID,287,VALID,0.647266,
2008-12-06, 00:19:04,VALID,1005.13,VALID,0,VALID,95.689,VALID,0,VALID,24.4451,VALID,280,VALID,0.966797,
2008-12-06, 00:20:04,VALID,1005.09,VALID,0,VALID,95.6738,VALID,0,VALID,24.4238,VALID,296,VALID,0.219531,
2008-12-06, 00:21:04,VALID,1005.07,VALID,0,VALID,95.689,VALID,0,VALID,24.4238,VALID,296,VALID,0.226172,
2008-12-06, 00:22:04,VALID,1005.03,VALID,0,VALID,95.6967,VALID,0,VALID,24.4451,VALID,283,VALID,0.191797,
2008-12-06, 00:23:04,VALID,1005.02,VALID,0,VALID,95.6814,VALID,0,VALID,24.4043,VALID,310,VALID,0.3875,
2008-12-06, 00:24:04,VALID,1004.97,VALID,0,VALID,95.689,VALID,0,VALID,24.4043,VALID,354,VALID,0.738281,
2008-12-06, 00:25:04,VALID,1004.94,VALID,0,VALID,95.6738,VALID,0,VALID,24.4062,VALID,358,VALID,0.491797,
2008-12-06, 00:26:04,VALID,1004.93,VALID,0,VALID,95.6814,VALID,0,VALID,24.3849,VALID,4,VALID,0.595703,
2008-12-06, 00:27:04,VALID,1004.9,VALID,0,VALID,95.6662,VALID,0,VALID,24.3654,VALID,359,VALID,0.759375,
2008-12-06, 00:28:04,VALID,1004.87,VALID,0,VALID,95.6738,VALID,0,VALID,24.3459,VALID,352,VALID,0.690625,
2008-12-06, 00:29:04,VALID,1004.83,VALID,0,VALID,95.6662,VALID,0,VALID,24.3459,VALID,352,VALID,0.613281,
2008-12-06, 00:30:04,VALID,1004.82,VALID,0,VALID,95.6662,VALID,0,VALID,24.3265,VALID,354,VALID,0.726953,
2008-12-06, 00:31:04,VALID,1004.82,VALID,0,VALID,95.6662,VALID,0,VALID,24.3265,VALID,356,VALID,0.769141,
2008-12-06, 00:32:04,VALID,1004.78,VALID,0,VALID,95.6738,VALID,0,VALID,24.307,VALID,355,VALID,0.597656,
2008-12-06, 00:33:04,VALID,1004.77,VALID,0,VALID,95.6662,VALID,0,VALID,24.307,VALID,355,VALID,0.350391,
2008-12-06, 00:34:04,VALID,1004.75,VALID,0,VALID,95.6814,VALID,0,VALID,24.3283,VALID,350,VALID,0.339063,
2008-12-06, 00:35:04,VALID,1004.74,VALID,0,VALID,95.6814,VALID,0,VALID,24.307,VALID,348,VALID,0.386328,
2008-12-06, 00:36:04,VALID,1004.73,VALID,0,VALID,95.6662,VALID,0,VALID,24.3265,VALID,343,VALID,0.0210938,
2008-12-06, 00:37:04,VALID,1004.75,VALID,0,VALID,95.6814,VALID,0,VALID,24.307,VALID,305,VALID,0.378906,
2008-12-06, 00:38:04,VALID,1004.69,VALID,0,VALID,95.6738,VALID,0,VALID,24.307,VALID,305,VALID,0,
2008-12-06, 00:39:04,VALID,1004.72,VALID,0,VALID,95.6738,VALID,0,VALID,24.307,VALID,324,VALID,0.389453,
2008-12-06, 00:40:04,VALID,1004.71,VALID,0,VALID,95.6967,VALID,0,VALID,24.307,VALID,325,VALID,0.00117188,
2008-12-06, 00:41:04,VALID,1004.73,VALID,0,VALID,95.689,VALID,0,VALID,24.307,VALID,284,VALID,0.264062,
2008-12-06, 00:42:04,VALID,1004.68,VALID,0,VALID,95.7043,VALID,0,VALID,24.307,VALID,291,VALID,0.0847656,
2008-12-06, 00:43:04,VALID,1004.68,VALID,0,VALID,95.689,VALID,0,VALID,24.307,VALID,350,VALID,0.776172,
2008-12-06, 00:44:04,VALID,1004.67,VALID,0,VALID,95.7196,VALID,0,VALID,24.307,VALID,360,VALID,0.491797,
2008-12-06, 00:45:04,VALID,1004.67,VALID,0,VALID,95.689,VALID,0,VALID,24.3283,VALID,353,VALID,0.998438,
2008-12-06, 00:46:04,VALID,1004.66,VALID,0,VALID,95.6814,VALID,0,VALID,24.3265,VALID,315,VALID,1.00391,
2008-12-06, 00:47:04,VALID,1004.67,VALID,0,VALID,95.6738,VALID,0,VALID,24.3283,VALID,345,VALID,1.16953,
2008-12-06, 00:48:04,VALID,1004.68,VALID,0,VALID,95.689,VALID,0,VALID,24.2857,VALID,305,VALID,0.729688,
2008-12-06, 00:49:04,VALID,1004.68,VALID,0,VALID,95.6738,VALID,0,VALID,24.2875,VALID,348,VALID,0.917578,
2008-12-06, 00:50:04,VALID,1004.65,VALID,0,VALID,95.6585,VALID,0,VALID,24.2681,VALID,353,VALID,0.812891,
2008-12-06, 00:51:04,VALID,1004.64,VALID,0,VALID,95.6433,VALID,0,VALID,24.2681,VALID,306,VALID,0.826953,
2008-12-06, 00:52:04,VALID,1004.6,VALID,0,VALID,95.6433,VALID,0,VALID,24.2681,VALID,331,VALID,1.06445,
2008-12-06, 00:53:04,VALID,1004.59,VALID,0,VALID,95.6356,VALID,0,VALID,24.2699,VALID,355,VALID,0.958984,
2008-12-06, 00:54:04,VALID,1004.63,VALID,0,VALID,95.628,VALID,0,VALID,24.2699,VALID,347,VALID,1.03594,
2008-12-06, 00:55:04,VALID,1004.6,VALID,0,VALID,95.6356,VALID,0,VALID,24.2486,VALID,352,VALID,0.754687,
2008-12-06, 00:56:04,VALID,1004.58,VALID,0,VALID,95.6128,VALID,0,VALID,24.2504,VALID,344,VALID,1.13672,
2008-12-06, 00:57:04,VALID,1004.55,VALID,0,VALID,95.6128,VALID,0,VALID,24.231,VALID,349,VALID,0.586328,
2008-12-06, 00:58:04,VALID,1004.56,VALID,0,VALID,95.5822,VALID,0,VALID,24.2097,VALID,346,VALID,0.917188,
2008-12-06, 00:59:04,VALID,1004.56,VALID,0,VALID,95.5822,VALID,0,VALID,24.2097,VALID,323,VALID,0.581641,
2008-12-06, 01:00:04,VALID,1004.59,VALID,0,VALID,95.5822,VALID,0,VALID,24.1902,VALID,343,VALID,0.867578,
2008-12-06, 01:01:04,VALID,1004.56,VALID,0,VALID,95.5746,VALID,0,VALID,24.1494,VALID,331,VALID,0.842578,
2008-12-06, 01:02:04,VALID,1004.57,VALID,0,VALID,95.5594,VALID,0,VALID,24.13,VALID,305,VALID,0.560156,
2008-12-06, 01:03:04,VALID,1004.57,VALID,0,VALID,95.5594,VALID,0,VALID,24.1513,VALID,289,VALID,0.882031,
2008-12-06, 01:04:04,VALID,1004.56,VALID,0,VALID,95.567,VALID,0,VALID,24.1513,VALID,313,VALID,0.620703,
2008-12-06, 01:05:04,VALID,1004.5,VALID,0,VALID,95.5746,VALID,0.100563,VALID,24.1707,VALID,290,VALID,0.526172,
2008-12-06, 01:06:04,VALID,1004.5,VALID,0,VALID,95.5822,VALID,0,VALID,24.1513,VALID,289,VALID,0.579687,
2008-12-06, 01:07:04,VALID,1004.48,VALID,0,VALID,95.567,VALID,0,VALID,24.1513,VALID,316,VALID,0.478906,
2008-12-06, 01:08:04,VALID,1004.44,VALID,0,VALID,95.5822,VALID,0,VALID,24.1726,VALID,356,VALID,1.0793,
2008-12-06, 01:09:04,VALID,1004.4,VALID,0,VALID,95.5517,VALID,0,VALID,24.1318,VALID,345,VALID,1.01094,
2008-12-06, 01:10:04,VALID,1004.4,VALID,0,VALID,95.5365,VALID,0,VALID,24.1318,VALID,358,VALID,0.662109,
2008-12-06, 01:11:04,VALID,1004.37,VALID,0,VALID,95.506,VALID,0,VALID,24.1123,VALID,316,VALID,0.741406,
2008-12-06, 01:12:04,VALID,1004.35,VALID,0,VALID,95.4907,VALID,0,VALID,24.1123,VALID,3,VALID,0.505078,
2008-12-06, 01:13:04,VALID,1004.34,VALID,0,VALID,95.4983,VALID,0,VALID,24.1123,VALID,306,VALID,0.326953,
2008-12-06, 01:14:04,VALID,1004.33,VALID,0,VALID,95.5136,VALID,0,VALID,24.1336,VALID,311,VALID,0.0253906,
2008-12-06, 01:15:04,VALID,1004.29,VALID,0,VALID,95.4526,VALID,0,VALID,24.0929,VALID,329,VALID,0.308984,
2008-12-06, 01:16:04,VALID,1004.28,VALID,0,VALID,95.4831,VALID,0,VALID,24.0929,VALID,279,VALID,0.317578,
2008-12-06, 01:17:04,VALID,1004.28,VALID,0,VALID,95.4602,VALID,0,VALID,24.1142,VALID,292,VALID,0.327344,
2008-12-06, 01:18:04,VALID,1004.26,VALID,0,VALID,95.4907,VALID,0,VALID,24.0734,VALID,286,VALID,0.0738281,
2008-12-06, 01:19:04,VALID,1004.2,VALID,0,VALID,95.4983,VALID,0,VALID,24.0734,VALID,275,VALID,0,
2008-12-06, 01:20:04,VALID,1004.17,VALID,0,VALID,95.4831,VALID,0,VALID,24.0734,VALID,275,VALID,0.354688,
2008-12-06, 01:21:04,VALID,1004.15,VALID,0,VALID,95.4831,VALID,0,VALID,24.0539,VALID,14,VALID,0.315234,
2008-12-06, 01:22:04,VALID,1004.12,VALID,0,VALID,95.506,VALID,0,VALID,24.0539,VALID,2,VALID,0,
2008-12-06, 01:23:04,VALID,1004.12,VALID,0,VALID,95.4831,VALID,0,VALID,24.0539,VALID,308,VALID,0.553906,
2008-12-06, 01:24:04,VALID,1004.13,VALID,0,VALID,95.4297,VALID,0,VALID,24.0345,VALID,293,VALID,1.29297,
2008-12-06, 01:25:04,VALID,1004.1,VALID,0,VALID,95.422,VALID,0,VALID,24.0345,VALID,297,VALID,1.3375,
2008-12-06, 01:26:04,VALID,1004.08,VALID,0,VALID,95.4754,VALID,0,VALID,24.0539,VALID,312,VALID,0.142969,
2008-12-06, 01:27:04,VALID,1004.05,VALID,0,VALID,95.4754,VALID,0,VALID,24.0539,VALID,4,VALID,0.914063,
2008-12-06, 01:28:04,VALID,1004.02,VALID,0,VALID,95.4297,VALID,0,VALID,24.0345,VALID,4,VALID,0.509766,
2008-12-06, 01:29:04,VALID,1003.99,VALID,0,VALID,95.4373,VALID,0,VALID,24.0345,VALID,359,VALID,0.219922,
2008-12-06, 01:30:04,VALID,1003.96,VALID,0,VALID,95.4373,VALID,0,VALID,24.015,VALID,357,VALID,0.278906,
2008-12-06, 01:31:04,VALID,1003.94,VALID,0,VALID,95.4449,VALID,0,VALID,23.9955,VALID,358,VALID,0.142578,
2008-12-06, 01:32:04,VALID,1003.9,VALID,0,VALID,95.4678,VALID,0,VALID,23.9742,VALID,358,VALID,0,
2008-12-06, 01:33:04,VALID,1003.89,VALID,0,VALID,95.4754,VALID,0.100563,VALID,23.9955,VALID,358,VALID,0.258203,
2008-12-06, 01:34:04,VALID,1003.87,VALID,0,VALID,95.4907,VALID,0,VALID,23.9955,VALID,357,VALID,0.153125,
2008-12-06, 01:35:04,VALID,1003.86,VALID,0,VALID,95.4907,VALID,0,VALID,23.9955,VALID,315,VALID,0.128125,
2008-12-06, 01:36:04,VALID,1003.82,VALID,0,VALID,95.4602,VALID,0.100563,VALID,23.9761,VALID,334,VALID,0.314453,
2008-12-06, 01:37:04,VALID,1003.81,VALID,0,VALID,95.506,VALID,0,VALID,23.9566,VALID,332,VALID,0.505078,
2008-12-06, 01:38:04,VALID,1003.77,VALID,0,VALID,95.4602,VALID,0,VALID,23.9566,VALID,346,VALID,0.522656,
2008-12-06, 01:39:04,VALID,1003.75,VALID,0,VALID,95.4449,VALID,0.100563,VALID,23.9371,VALID,349,VALID,0.822266,
2008-12-06, 01:40:04,VALID,1003.76,VALID,0,VALID,95.4297,VALID,0,VALID,23.9371,VALID,349,VALID,0.888281,
2008-12-06, 01:41:04,VALID,1003.72,VALID,0,VALID,95.4297,VALID,0,VALID,23.9177,VALID,355,VALID,0.904688,
2008-12-06, 01:42:04,VALID,1003.73,VALID,0,VALID,95.4144,VALID,0,VALID,23.9177,VALID,353,VALID,0.972656,
2008-12-06, 01:43:04,VALID,1003.73,VALID,0,VALID,95.4678,VALID,0,VALID,23.9195,VALID,354,VALID,0.403516,
2008-12-06, 01:44:04,VALID,1003.72,VALID,0,VALID,95.4373,VALID,0,VALID,23.8982,VALID,357,VALID,0.753125,
2008-12-06, 01:45:04,VALID,1003.7,VALID,0,VALID,95.4068,VALID,0,VALID,23.8982,VALID,355,VALID,1.35234,
2008-12-06, 01:46:04,VALID,1003.67,VALID,0,VALID,95.4068,VALID,0,VALID,23.9195,VALID,354,VALID,1.2375,
2008-12-06, 01:47:04,VALID,1003.67,VALID,0,VALID,95.3686,VALID,0,VALID,23.8982,VALID,352,VALID,1.18867,
2008-12-06, 01:48:04,VALID,1003.64,VALID,0,VALID,95.4068,VALID,0,VALID,23.9177,VALID,289,VALID,0.258984,
2008-12-06, 01:49:04,VALID,1003.61,VALID,0,VALID,95.3991,VALID,0,VALID,23.9177,VALID,326,VALID,0.205469,
2008-12-06, 01:50:04,VALID,1003.61,VALID,0,VALID,95.4144,VALID,0,VALID,23.9177,VALID,348,VALID,0.533984,
2008-12-06, 01:51:04,VALID,1003.57,VALID,0,VALID,95.3534,VALID,0,VALID,23.8982,VALID,1,VALID,0.416797,
2008-12-06, 01:52:04,VALID,1003.55,VALID,0,VALID,95.3763,VALID,0,VALID,23.9177,VALID,1,VALID,0.107031,
2008-12-06, 01:53:04,VALID,1003.54,VALID,0,VALID,95.3686,VALID,0,VALID,23.8982,VALID,349,VALID,0.205469,
2008-12-06, 01:54:04,VALID,1003.49,VALID,0,VALID,95.3534,VALID,0,VALID,23.8575,VALID,322,VALID,0.458203,
2008-12-06, 01:55:04,VALID,1003.43,VALID,0,VALID,95.3305,VALID,0,VALID,23.8787,VALID,356,VALID,0.817578,
2008-12-06, 01:56:04,VALID,1003.42,VALID,0,VALID,95.3381,VALID,0,VALID,23.8611,VALID,323,VALID,0.685156,
2008-12-06, 01:57:04,VALID,1003.42,VALID,0,VALID,95.3534,VALID,0,VALID,23.8593,VALID,11,VALID,0.345703,
2008-12-06, 01:58:04,VALID,1003.38,VALID,0,VALID,95.2923,VALID,0,VALID,23.8398,VALID,360,VALID,0.83125,
2008-12-06, 01:59:04,VALID,1003.39,VALID,0,VALID,95.2771,VALID,0,VALID,23.8203,VALID,347,VALID,0.708984,
2008-12-06, 02:00:04,VALID,1003.37,VALID,0,VALID,95.2695,VALID,0,VALID,23.8203,VALID,321,VALID,0.505469,
2008-12-06, 02:01:04,VALID,1003.35,VALID,0,VALID,95.2389,VALID,0,VALID,23.8203,VALID,358,VALID,0.616406,
2008-12-06, 02:02:04,VALID,1003.33,VALID,0,VALID,95.2923,VALID,0,VALID,23.8203,VALID,299,VALID,0.401953,
2008-12-06, 02:03:04,VALID,1003.33,VALID,0,VALID,95.2771,VALID,0,VALID,23.8221,VALID,43,VALID,0.619531,
2008-12-06, 02:04:04,VALID,1003.34,VALID,0,VALID,95.2618,VALID,0,VALID,23.8221,VALID,339,VALID,0.50625,
2008-12-06, 02:05:04,VALID,1003.31,VALID,0,VALID,95.2161,VALID,0,VALID,23.7407,VALID,329,VALID,0.798047,
2008-12-06, 02:06:04,VALID,1003.31,VALID,0,VALID,95.1321,VALID,0,VALID,23.7814,VALID,328,VALID,1.71055,
2008-12-06, 02:07:04,VALID,1003.31,VALID,0,VALID,95.0864,VALID,0,VALID,23.7619,VALID,350,VALID,1.26289,
2008-12-06, 02:08:04,VALID,1003.29,VALID,0,VALID,95.0864,VALID,0,VALID,23.7814,VALID,223,VALID,0.495703,
2008-12-06, 02:09:04,VALID,1003.29,VALID,0,VALID,95.0864,VALID,0,VALID,23.7814,VALID,360,VALID,0.618359,
2008-12-06, 02:10:04,VALID,1003.24,VALID,0,VALID,95.0253,VALID,0,VALID,23.7407,VALID,345,VALID,0.794922,
2008-12-06, 02:11:04,VALID,1003.2,VALID,0,VALID,95.0482,VALID,0,VALID,23.7619,VALID,347,VALID,0.885547,
2008-12-06, 02:12:04,VALID,1003.2,VALID,0,VALID,95.0635,VALID,0,VALID,23.7619,VALID,336,VALID,0.295312,
2008-12-06, 02:13:04,VALID,1003.18,VALID,0,VALID,95.094,VALID,0,VALID,23.7619,VALID,329,VALID,0.264453,
2008-12-06, 02:14:04,VALID,1003.14,VALID,0,VALID,95.0482,VALID,0,VALID,23.7619,VALID,313,VALID,0.754297,
2008-12-06, 02:15:04,VALID,1003.13,VALID,0,VALID,94.9872,VALID,0,VALID,23.7425,VALID,287,VALID,1.19609,
2008-12-06, 02:16:04,VALID,1003.08,VALID,0,VALID,94.9872,VALID,0,VALID,23.7017,VALID,345,VALID,1.08047,
2008-12-06, 02:17:04,VALID,1003.08,VALID,0,VALID,94.9872,VALID,0,VALID,23.7425,VALID,308,VALID,0.364844,
2008-12-06, 02:18:04,VALID,1003.05,VALID,0,VALID,94.9338,VALID,0.100563,VALID,23.723,VALID,360,VALID,0.482812,
2008-12-06, 02:19:04,VALID,1003.01,VALID,0,VALID,94.949,VALID,0,VALID,23.723,VALID,7,VALID,0.769922,
2008-12-06, 02:20:04,VALID,1002.98,VALID,0,VALID,94.8804,VALID,0,VALID,23.7035,VALID,344,VALID,1.04531,
2008-12-06, 02:21:04,VALID,1003,VALID,0,VALID,94.9643,VALID,0.100563,VALID,23.723,VALID,286,VALID,0.268359,
2008-12-06, 02:22:04,VALID,1003,VALID,0,VALID,94.888,VALID,0,VALID,23.7035,VALID,349,VALID,0.650781,
2008-12-06, 02:23:04,VALID,1002.97,VALID,0,VALID,94.8651,VALID,0.100563,VALID,23.6628,VALID,344,VALID,0.894141,
2008-12-06, 02:24:04,VALID,1002.99,VALID,0,VALID,94.888,VALID,0,VALID,23.6841,VALID,344,VALID,0.425,
2008-12-06, 02:25:04,VALID,1002.99,VALID,0,VALID,94.8728,VALID,0.100563,VALID,23.6841,VALID,335,VALID,0.552734,
2008-12-06, 02:26:04,VALID,1003,VALID,0,VALID,94.8575,VALID,0,VALID,23.6646,VALID,341,VALID,0.45625,
2008-12-06, 02:27:04,VALID,1003,VALID,0,VALID,94.8194,VALID,0.100563,VALID,23.6452,VALID,346,VALID,0.889063,
2008-12-06, 02:28:04,VALID,1003,VALID,0,VALID,94.8346,VALID,0,VALID,23.6452,VALID,19,VALID,0.751562,
2008-12-06, 02:29:04,VALID,1002.98,VALID,0,VALID,94.7888,VALID,0,VALID,23.6646,VALID,346,VALID,1.1875,
2008-12-06, 02:30:04,VALID,1003,VALID,0,VALID,94.8117,VALID,0.100563,VALID,23.6646,VALID,334,VALID,0.401172,
2008-12-06, 02:31:04,VALID,1003.01,VALID,0,VALID,94.7354,VALID,0,VALID,23.6664,VALID,355,VALID,1.0793,
2008-12-06, 02:32:04,VALID,1002.98,VALID,0,VALID,94.7583,VALID,0,VALID,23.6841,VALID,36,VALID,1.04609,
2008-12-06, 02:33:04,VALID,1002.98,VALID,0,VALID,94.7583,VALID,0,VALID,23.6841,VALID,347,VALID,1.14883,
2008-12-06, 02:34:04,VALID,1002.97,VALID,0,VALID,94.7812,VALID,0,VALID,23.7248,VALID,350,VALID,1.12383,
2008-12-06, 02:35:04,VALID,1002.97,VALID,0,VALID,94.8117,VALID,0,VALID,23.723,VALID,345,VALID,0.18125,
2008-12-06, 02:36:04,VALID,1002.96,VALID,0,VALID,94.7965,VALID,0,VALID,23.723,VALID,353,VALID,0.539844,
2008-12-06, 02:37:04,VALID,1002.97,VALID,0,VALID,94.7965,VALID,0,VALID,23.723,VALID,350,VALID,0.872266,
2008-12-06, 02:38:04,VALID,1002.97,VALID,0,VALID,94.8041,VALID,0,VALID,23.7035,VALID,352,VALID,1.08789,
2008-12-06, 02:39:04,VALID,1002.98,VALID,0,VALID,94.8194,VALID,0,VALID,23.7017,VALID,347,VALID,0.482031,
2008-12-06, 02:40:04,VALID,1002.97,VALID,0,VALID,94.7888,VALID,0,VALID,23.723,VALID,343,VALID,1.10508,
2008-12-06, 02:41:04,VALID,1002.95,VALID,0,VALID,94.827,VALID,0,VALID,23.723,VALID,351,VALID,0.503125,
2008-12-06, 02:42:04,VALID,1002.95,VALID,0,VALID,94.7888,VALID,0,VALID,23.723,VALID,3,VALID,0.721094,
2008-12-06, 02:43:04,VALID,1003,VALID,0,VALID,94.827,VALID,0,VALID,23.723,VALID,357,VALID,0.520703,
2008-12-06, 02:44:04,VALID,1003,VALID,0,VALID,94.8194,VALID,0,VALID,23.6823,VALID,347,VALID,0.505078,
2008-12-06, 02:45:04,VALID,1002.99,VALID,0,VALID,94.8499,VALID,0,VALID,23.6841,VALID,347,VALID,0.285937,
2008-12-06, 02:46:04,VALID,1002.98,VALID,0,VALID,94.7812,VALID,0,VALID,23.6841,VALID,352,VALID,0.776172,
2008-12-06, 02:47:04,VALID,1002.99,VALID,0,VALID,94.7736,VALID,0,VALID,23.6841,VALID,351,VALID,0.838672,
2008-12-06, 02:48:04,VALID,1003.01,VALID,0,VALID,94.7812,VALID,0,VALID,23.6841,VALID,16,VALID,0.473828,
2008-12-06, 02:49:04,VALID,1002.98,VALID,0,VALID,94.7507,VALID,0,VALID,23.6841,VALID,354,VALID,0.872656,
2008-12-06, 02:50:04,VALID,1003.02,VALID,0,VALID,94.7354,VALID,0,VALID,23.7035,VALID,4,VALID,0.560156,
2008-12-06, 02:51:04,VALID,1003.01,VALID,0,VALID,94.6439,VALID,0,VALID,23.7443,VALID,345,VALID,0.773438,
2008-12-06, 02:52:04,VALID,1003.01,VALID,0,VALID,94.6057,VALID,0,VALID,23.7443,VALID,344,VALID,0.5875,
2008-12-06, 02:53:04,VALID,1002.99,VALID,0,VALID,94.5905,VALID,0,VALID,23.7425,VALID,6,VALID,0.711719,
2008-12-06, 02:54:04,VALID,1003,VALID,0,VALID,94.5752,VALID,0,VALID,23.7425,VALID,354,VALID,0.277344,
2008-12-06, 02:55:04,VALID,1003.02,VALID,0,VALID,94.5523,VALID,0,VALID,23.7425,VALID,353,VALID,0.990625,
2008-12-06, 02:56:04,VALID,1003.01,VALID,0,VALID,94.5447,VALID,0,VALID,23.7814,VALID,4,VALID,0.446875,
2008-12-06, 02:57:04,VALID,1002.99,VALID,0,VALID,94.5142,VALID,0.100563,VALID,23.7814,VALID,351,VALID,0.471484,
2008-12-06, 02:58:04,VALID,1003.01,VALID,0,VALID,94.5752,VALID,0.100563,VALID,23.8009,VALID,352,VALID,0.372266,
2008-12-06, 02:59:04,VALID,1003.02,VALID,0,VALID,94.5829,VALID,0,VALID,23.7814,VALID,348,VALID,1.27695,
2008-12-06, 03:00:04,VALID,1003.05,VALID,0,VALID,94.56,VALID,0,VALID,23.8009,VALID,338,VALID,0.714844,
2008-12-06, 03:01:04,VALID,1003.04,VALID,0,VALID,94.5676,VALID,0,VALID,23.8398,VALID,335,VALID,0.640234,
2008-12-06, 03:02:04,VALID,1003.06,VALID,0,VALID,94.5676,VALID,0,VALID,23.8398,VALID,351,VALID,0.525781,
2008-12-06, 03:03:04,VALID,1003.06,VALID,0,VALID,94.5523,VALID,0,VALID,23.8398,VALID,345,VALID,0.458203,
2008-12-06, 03:04:04,VALID,1003.07,VALID,0,VALID,94.5295,VALID,0,VALID,23.8185,VALID,351,VALID,1.06719,
2008-12-06, 03:05:04,VALID,1003.08,VALID,0,VALID,94.5676,VALID,0,VALID,23.8593,VALID,331,VALID,0.719922,
2008-12-06, 03:06:04,VALID,1003.09,VALID,0,VALID,94.6057,VALID,0,VALID,23.9177,VALID,10,VALID,0.551953,
2008-12-06, 03:07:04,VALID,1003.06,VALID,0,VALID,94.5142,VALID,0,VALID,23.9177,VALID,322,VALID,0.932422,
2008-12-06, 03:08:04,VALID,1003.1,VALID,0,VALID,94.5371,VALID,0,VALID,23.9584,VALID,349,VALID,0.442969,
2008-12-06, 03:09:04,VALID,1003.07,VALID,0,VALID,94.5218,VALID,0,VALID,23.9548,VALID,349,VALID,0.213281,
2008-12-06, 03:10:04,VALID,1003.07,VALID,0,VALID,94.4989,VALID,0,VALID,23.9566,VALID,350,VALID,0.453516,
2008-12-06, 03:11:04,VALID,1003.09,VALID,0,VALID,94.4837,VALID,0,VALID,23.9566,VALID,63,VALID,0.576172,
2008-12-06, 03:12:04,VALID,1003.08,VALID,0,VALID,94.415,VALID,0,VALID,23.9548,VALID,338,VALID,1.23047,
2008-12-06, 03:13:04,VALID,1003.1,VALID,0,VALID,94.3845,VALID,0,VALID,23.9761,VALID,351,VALID,0.977344,
2008-12-06, 03:14:04,VALID,1003.11,VALID,0,VALID,94.3769,VALID,0,VALID,23.9742,VALID,345,VALID,0.88125,
2008-12-06, 03:15:04,VALID,1003.1,VALID,0,VALID,94.354,VALID,0.100563,VALID,23.9955,VALID,354,VALID,0.663281,
2008-12-06, 03:16:04,VALID,1003.11,VALID,0,VALID,94.2701,VALID,0,VALID,23.9761,VALID,355,VALID,1.04883,
2008-12-06, 03:17:04,VALID,1003.13,VALID,0,VALID,94.2548,VALID,0,VALID,23.9955,VALID,327,VALID,0.752344,
2008-12-06, 03:18:04,VALID,1003.12,VALID,0,VALID,94.2624,VALID,0,VALID,23.9955,VALID,38,VALID,0.640234,
2008-12-06, 03:19:04,VALID,1003.14,VALID,0,VALID,94.2319,VALID,0.100563,VALID,23.9955,VALID,287,VALID,0.320703,
2008-12-06, 03:20:04,VALID,1003.16,VALID,0,VALID,94.3006,VALID,0,VALID,23.9955,VALID,283,VALID,0.1625,
2008-12-06, 03:21:04,VALID,1003.17,VALID,0,VALID,94.3387,VALID,0,VALID,23.9761,VALID,271,VALID,0.365234,
2008-12-06, 03:22:04,VALID,1003.17,VALID,0,VALID,94.2777,VALID,0,VALID,23.9353,VALID,324,VALID,0.864453,
2008-12-06, 03:23:04,VALID,1003.2,VALID,0,VALID,94.3692,VALID,0,VALID,23.9566,VALID,335,VALID,0.134766,
2008-12-06, 03:24:04,VALID,1003.22,VALID,0,VALID,94.3921,VALID,0,VALID,23.9566,VALID,291,VALID,0.555859,
2008-12-06, 03:25:04,VALID,1003.18,VALID,0,VALID,94.4379,VALID,0,VALID,23.9371,VALID,285,VALID,0.6,
2008-12-06, 03:26:04,VALID,1003.23,VALID,0,VALID,94.4837,VALID,0,VALID,23.9371,VALID,335,VALID,0.467187,
2008-12-06, 03:27:04,VALID,1003.21,VALID,0,VALID,94.4837,VALID,0,VALID,23.9566,VALID,336,VALID,0.550781,
2008-12-06, 03:28:04,VALID,1003.22,VALID,0,VALID,94.4379,VALID,0,VALID,23.9761,VALID,350,VALID,0.965234,
2008-12-06, 03:29:04,VALID,1003.24,VALID,0,VALID,94.5066,VALID,0,VALID,23.9761,VALID,345,VALID,0.405469,
2008-12-06, 03:30:04,VALID,1003.24,VALID,0,VALID,94.4303,VALID,0,VALID,23.9761,VALID,357,VALID,0.941797,
2008-12-06, 03:31:04,VALID,1003.26,VALID,0,VALID,94.415,VALID,0,VALID,24.015,VALID,356,VALID,0.599219,
2008-12-06, 03:32:04,VALID,1003.27,VALID,0,VALID,94.3921,VALID,0.100563,VALID,24.015,VALID,351,VALID,0.253516,
2008-12-06, 03:33:04,VALID,1003.24,VALID,0,VALID,94.3921,VALID,0,VALID,23.9937,VALID,351,VALID,0.260156,
2008-12-06, 03:34:04,VALID,1003.26,VALID,0,VALID,94.354,VALID,0,VALID,23.9955,VALID,345,VALID,0.571094,
2008-12-06, 03:35:04,VALID,1003.26,VALID,0,VALID,94.3845,VALID,0,VALID,23.9742,VALID,25,VALID,0.189453,
2008-12-06, 03:36:04,VALID,1003.25,VALID,0,VALID,94.4074,VALID,0.100563,VALID,23.9761,VALID,25,VALID,0,
2008-12-06, 03:37:04,VALID,1003.22,VALID,0,VALID,94.3769,VALID,0.100563,VALID,23.9566,VALID,25,VALID,0.337109,
2008-12-06, 03:38:04,VALID,1003.25,VALID,0,VALID,94.3769,VALID,0,VALID,23.9566,VALID,25,VALID,0,
2008-12-06, 03:39:04,VALID,1003.25,VALID,0,VALID,94.3616,VALID,0,VALID,23.9177,VALID,25,VALID,0.162109,
2008-12-06, 03:40:04,VALID,1003.26,VALID,0,VALID,94.3464,VALID,0.100563,VALID,23.9371,VALID,27,VALID,0.492969,
2008-12-06, 03:41:04,VALID,1003.24,VALID,0,VALID,94.3006,VALID,0,VALID,23.9177,VALID,29,VALID,0.536328,
2008-12-06, 03:42:04,VALID,1003.26,VALID,0,VALID,94.1251,VALID,0,VALID,23.9177,VALID,15,VALID,1.20313,
2008-12-06, 03:43:04,VALID,1003.27,VALID,0,VALID,94.0794,VALID,0,VALID,23.9761,VALID,359,VALID,0.485156,
2008-12-06, 03:44:04,VALID,1003.29,VALID,0,VALID,94.0336,VALID,0,VALID,23.9761,VALID,8,VALID,0.367188,